STARLINK-11194, 60187

Orbit data source: Space-Track

STARLINK-11194, 60187 is a payload satellite owned by SpaceX/Seattle (US) in LEO that was launched on Wed, 03 Jul 2024 UTC via an FALCON 9 launch vehicle from the Air Force Eastern Test Range (AFETR). Payload-class satellites include a variety of spacecraft equipped with specific instruments for various scientific and technological missions. These include communications satellites like Starlink; space stations such as the ISS; scientific satellites like the Hubble; Earth observation satellites from companies like Planet Labs, Umbra, and HawkEye 360; GPS; miniature CubeSats for education and research; and military/defense satellites.

Not visible in the next 10 days
Identifier
60187, 2024-124E
Orbit
LEO
Country
Flag of USUS
Related business
Manufacturer
SpaceX/Seattle
Mission
Operational Commercial Communications
Bus & Motor
STARLINK V2MD, Unknown motor
Mass
960 kg wet, ~910 kg dry
Launch date (UTC)
2024-07-03 (1 year ago)
Launch vehicle
FALCON 9
Launch site
Air Force Eastern Test Range (AFETR)
Object type
Payload
Rocket body
Debris
Shape & HBR
Box + 2 Pan, 18.1 m
Radar Cross Section
36.964 m², Large (>1 m²)

Expand to show TLE details & history
Last TLE update: 1 day ago

TLE from 1 day ago
0 STARLINK-11194
1 60187U 24124E   25341.02132539  .00001843  00000-0  20066-4 0  9999
2 60187  53.1590 257.7706 0001486  15.7899 344.3165 15.69713076 81986
Epoch: 2025-12-07T00:30Z
TLE epoch observation values (Epoch: 2025-12-07T00:30:42.513Z)
Latitude
-0.00003°
Longitude
174.05275°
Altitude
359.669 km
Speed
7.695 km/s
True Right ascension
17h 11m 04s
True Declination
0° 00' 00"
Sunlit
Object was in daylight at epoch
Visualization orbit readout
Latitude
Unknown
Longitude
Unknown
Altitude
Unknown
Speed
Unknown
Apparent Right ascension
Unknown
Apparent Declination
Unknown
Sunlit
N/A
Visualization observer readout
Local Sidereal Time
01:03:12
Azimuth
Unknown
Elevation
Unknown
Doppler factor
Unknown
Orbital elements
Apogee altitude
360.98 km
Perigee altitude
358.978 km
Semi-major axis
6,738.116 km
Eccentricity
0.00015
Inclination
53.159°
RAAN
257.7706°
Arg. of periapsis
15.7899°
True anomaly
344.3119°
Mean anomaly
344.3165°
Eccentric anomaly
344.3142°
Mean motion
3.92406 °/min
Orbital period
91.74 mins
BSTAR
0.000020066
Loading maneuver chart data...
Computing Atmospheric mass density...
Loading historical data...
Loading historical data...
Loading historical data...
Loading historical data...
Loading historical data...
Loading historical data...
Loading historical data...

Documentation

Showing up to 5 results
|